Tracking 19795 objects as of 20-Jul-2019
HD Live streaming from Space Station
objects crossing your sky now

BREEZE-KM R/B

Track BREEZE-KM R/B now!
10-day predictions


NORAD ID: 42970
Int'l Code: 2017-064B
Perigee: 418.6 km
Apogee: 771.0 km
Inclination: 98.8 °
Period: 96.4 minutes
Semi major axis: 6965 km
RCS: Unknown
Launch date: October 13, 2017
Source: Commonwealth of Independent States (former USSR) (CIS)
Launch site: PLESETSK MISSILE AND SPACE COMPLEX (PKMTR)

Note: This is a ROCKET BODY
aabbcc
Your satellite tracking list
Your tracking list is empty




NASA's NSSDC Master Catalog

Two Line Element Set (TLE):
1 42970U 17064B   19201.13878018  .00000524  00000-0  31940-4 0  9991
2 42970  98.7959 224.6905 0252959  22.6896 338.5270 14.93295096 96184
Source of the keplerian elements: AFSPC